| time (UTC) | temp F | wind direction | speed MPH | gust MPH | rain 1hr in | rain 24hr in | rain mn in | humidity % | barometer mb |
| 20260510033654 | 76 | 152 | 1.0 | 4.0 | 0.00 | 0.00 | 0.00 | 46 | 1009.6 |
| 20260510033153 | 76 | 131 | 1.0 | 4.0 | 0.00 | 0.00 | 0.00 | 47 | 1009.5 |
| 20260510032655 | 76 | 140 | 1.0 | 3.0 | 0.00 | 0.00 | 0.00 | 46 | 1009.4 |
| 20260510032152 | 76 | 131 | 2.0 | 3.0 | 0.00 | 0.00 | 0.00 | 43 | 1009.5 |
| 20260510031653 | 76 | 134 | 1.0 | 3.0 | 0.00 | 0.00 | 0.00 | 42 | 1009.4 |
| 20260510031151 | 76 | 107 | 0.0 | 3.0 | 0.00 | 0.00 | 0.00 | 43 | 1009.4 |
| 20260510030152 | 76 | 120 | 1.0 | 3.0 | 0.00 | 0.00 | 0.00 | 46 | 1009.0 |
| 20260510025653 | 77 | 80 | 0.0 | 3.0 | 0.00 | 0.00 | 0.00 | 48 | 1009.0 |
| 20260510025151 | 77 | 82 | 2.0 | 3.0 | 0.00 | 0.00 | 0.00 | 49 | 1008.9 |
| 20260510024652 | 77 | 149 | 0.0 | 0.0 | 0.00 | 0.00 | 0.00 | 53 | 1008.7 |
| 20260510024151 | 77 | 149 | 0.0 | 0.0 | 0.00 | 0.00 | 0.00 | 55 | 1008.6 |
| 20260510023652 | 78 | 149 | 0.0 | 1.0 | 0.00 | 0.00 | 0.00 | 58 | 1008.5 |
| 20260510022151 | 78 | 142 | 0.0 | 1.0 | 0.00 | 0.00 | 0.00 | 61 | 1008.1 |
| 20260510021650 | 79 | 134 | 0.0 | 6.0 | 0.00 | 0.00 | 0.00 | 62 | 1008.2 |
| 20260510021151 | 79 | 134 | 0.0 | 6.0 | 0.00 | 0.00 | 0.00 | 62 | 1008.2 |
| 20260510020652 | 79 | 130 | 1.0 | 5.0 | 0.00 | 0.00 | 0.00 | 63 | 1008.2 |
| 20260510020151 | 79 | 159 | 0.0 | 5.0 | 0.00 | 0.00 | 0.00 | 63 | 1008.0 |
| 20260510015652 | 80 | 173 | 1.0 | 5.0 | 0.00 | 0.00 | 0.00 | 63 | 1007.9 |
| 20260510015150 | 80 | 148 | 2.0 | 7.0 | 0.00 | 0.00 | 0.00 | 64 | 1007.7 |
| 20260510014650 | 80 | 162 | 3.0 | 9.0 | 0.00 | 0.00 | 0.00 | 65 | 1007.6 |
| 20260510013651 | 81 | 207 | 4.0 | 10.0 | 0.00 | 0.00 | 0.00 | 65 | 1007.4 |
| 20260510013148 | 81 | 159 | 4.0 | 9.0 | 0.00 | 0.00 | 0.00 | 65 | 1007.6 |
| 20260510012148 | 82 | 175 | 5.0 | 12.0 | 0.00 | 0.00 | 0.00 | 65 | 1007.7 |
| 20260510011651 | 82 | 157 | 6.0 | 12.0 | 0.00 | 0.00 | 0.00 | 65 | 1007.8 |
| 20260510011150 | 82 | 161 | 3.0 | 7.0 | 0.00 | 0.00 | 0.00 | 65 | 1007.8 |
| 20260510010650 | 82 | 161 | 3.0 | 7.0 | 0.00 | 0.00 | 0.00 | 65 | 1008.0 |
| 20260510010149 | 83 | 162 | 3.0 | 7.0 | 0.00 | 0.00 | 0.00 | 65 | 1008.0 |
| 20260510004650 | 84 | 154 | 3.0 | 11.0 | 0.00 | 0.00 | 0.00 | 65 | 1007.8 |
| 20260510004148 | 85 | 148 | 6.0 | 12.0 | 0.00 | 0.00 | 0.00 | 64 | 1007.8 |
| 20260510003650 | 85 | 154 | 5.0 | 14.0 | 0.00 | 0.00 | 0.00 | 61 | 1007.9 |
| 20260510003148 | 87 | 151 | 8.0 | 14.0 | 0.00 | 0.00 | 0.00 | 61 | 1007.8 |
| 20260510001648 | 90 | 164 | 2.0 | 6.0 | 0.00 | 0.00 | 0.00 | 56 | 1007.2 |
| 20260510000649 | 91 | 145 | 2.0 | 4.0 | 0.00 | 0.00 | 0.00 | 56 | 1007.1 |
| 20260510000147 | 91 | 135 | 1.0 | 3.0 | 0.00 | 0.00 | 0.00 | 54 | 1007.2 |
| 20260509235146 | 92 | 124 | 2.0 | 3.0 | 0.00 | 0.00 | 0.00 | 52 | 1007.1 |
| 20260509234648 | 92 | 106 | 2.0 | 3.0 | 0.00 | 0.00 | 0.00 | 51 | 1007.0 |
| 20260509234147 | 92 | 157 | 0.0 | 3.0 | 0.00 | 0.00 | 0.00 | 49 | 1007.0 |
| 20260509233648 | 92 | 165 | 0.0 | 3.0 | 0.00 | 0.00 | 0.00 | 51 | 1006.9 |
| 20260509233145 | 92 | 133 | 2.0 | 4.0 | 0.00 | 0.00 | 0.00 | 52 | 1006.8 |
| 20260509232650 | 92 | 193 | 1.0 | 5.0 | 0.00 | 0.00 | 0.00 | 52 | 1007.0 |
| 20260509232146 | 92 | 135 | 3.0 | 5.0 | 0.00 | 0.00 | 0.00 | 52 | 1006.9 |
| 20260509231647 | 92 | 144 | 1.0 | 4.0 | 0.00 | 0.00 | 0.00 | 50 | 1007.0 |
| 20260509231145 | 93 | 100 | 1.0 | 3.0 | 0.00 | 0.00 | 0.00 | 50 | 1007.0 |
| 20260509230146 | 93 | 149 | 2.0 | 5.0 | 0.00 | 0.00 | 0.00 | 50 | 1006.9 |
| 20260509225649 | 93 | 147 | 2.0 | 4.0 | 0.00 | 0.00 | 0.00 | 51 | 1006.9 |
| 20260509225146 | 93 | 138 | 3.0 | 4.0 | 0.00 | 0.00 | 0.00 | 51 | 1006.9 |
| 20260509224142 | 92 | 149 | 0.0 | 4.0 | 0.00 | 0.00 | 0.00 | 52 | 1006.9 |
| 20260509222648 | 92 | 169 | 1.0 | 4.0 | 0.00 | 0.00 | 0.00 | 51 | 1006.9 |
| 20260509221647 | 92 | 327 | 0.0 | 3.0 | 0.00 | 0.00 | 0.00 | 55 | 1007.0 |
| 20260509221146 | 92 | 330 | 1.0 | 3.0 | 0.00 | 0.00 | 0.00 | 54 | 1006.9 |
| 20260509220645 | 91 | 307 | 0.0 | 3.0 | 0.00 | 0.00 | 0.00 | 51 | 1007.0 |
| 20260509220145 | 92 | 99 | 1.0 | 3.0 | 0.00 | 0.00 | 0.00 | 51 | 1007.1 |
| 20260509215646 | 92 | 134 | 0.0 | 3.0 | 0.00 | 0.00 | 0.00 | 53 | 1007.1 |
| 20260509215144 | 91 | 166 | 2.0 | 5.0 | 0.00 | 0.00 | 0.00 | 53 | 1007.1 |
| 20260509214145 | 90 | 182 | 2.0 | 3.0 | 0.00 | 0.00 | 0.00 | 55 | 1007.0 |
| 20260509213646 | 90 | 151 | 1.0 | 2.0 | 0.00 | 0.00 | 0.00 | 55 | 1007.0 |
| 20260509213143 | 90 | 217 | 0.0 | 2.0 | 0.00 | 0.00 | 0.00 | 57 | 1007.1 |
| 20260509212646 | 89 | 217 | 0.0 | 2.0 | 0.00 | 0.00 | 0.00 | 55 | 1007.1 |
| 20260509212144 | 89 | 206 | 0.0 | 4.0 | 0.00 | 0.00 | 0.00 | 55 | 1007.1 |
| 20260509211643 | 89 | 290 | 1.0 | 4.0 | 0.00 | 0.00 | 0.00 | 55 | 1007.0 |
| 20260509211142 | 89 | 327 | 1.0 | 4.0 | 0.00 | 0.00 | 0.00 | 55 | 1007.1 |
| 20260509210142 | 89 | 303 | 1.0 | 3.0 | 0.00 | 0.00 | 0.00 | 57 | 1007.2 |
| 20260509205645 | 89 | 307 | 1.0 | 4.0 | 0.00 | 0.00 | 0.00 | 55 | 1007.3 |
| 20260509205144 | 89 | 279 | 1.0 | 7.0 | 0.00 | 0.00 | 0.00 | 55 | 1007.2 |
| 20260509204645 | 90 | 292 | 2.0 | 7.0 | 0.00 | 0.00 | 0.00 | 53 | 1007.4 |
| 20260509204142 | 91 | 324 | 1.0 | 7.0 | 0.00 | 0.00 | 0.00 | 53 | 1007.4 |
| 20260509203643 | 91 | 300 | 1.0 | 4.0 | 0.00 | 0.00 | 0.00 | 54 | 1007.4 |
| 20260509202644 | 91 | 283 | 1.0 | 3.0 | 0.00 | 0.00 | 0.00 | 54 | 1007.6 |
| 20260509202141 | 90 | 162 | 0.0 | 3.0 | 0.00 | 0.00 | 0.00 | 56 | 1007.6 |
| 20260509201644 | 89 | 309 | 0.0 | 3.0 | 0.00 | 0.00 | 0.00 | 57 | 1007.7 |
| 20260509200644 | 90 | 344 | 1.0 | 5.0 | 0.00 | 0.00 | 0.00 | 55 | 1007.8 |
| 20260509200143 | 90 | 61 | 1.0 | 5.0 | 0.00 | 0.00 | 0.00 | 56 | 1007.8 |
| 20260509195645 | 90 | 18 | 2.0 | 10.0 | 0.00 | 0.00 | 0.00 | 56 | 1007.9 |
| 20260509194643 | 90 | 326 | 4.0 | 7.0 | 0.00 | 0.00 | 0.00 | 57 | 1008.1 |
| 20260509194142 | 89 | 337 | 1.0 | 4.0 | 0.00 | 0.00 | 0.00 | 57 | 1008.1 |
| 20260509193643 | 88 | 238 | 1.0 | 4.0 | 0.00 | 0.00 | 0.00 | 58 | 1008.1 |
| 20260509193142 | 89 | 261 | 2.0 | 6.0 | 0.00 | 0.00 | 0.00 | 59 | 1008.3 |
| 20260509192643 | 89 | 254 | 1.0 | 6.0 | 0.00 | 0.00 | 0.00 | 56 | 1008.3 |
| 20260509192140 | 89 | 106 | 0.0 | 10.0 | 0.00 | 0.00 | 0.00 | 56 | 1008.4 |
| 20260509191642 | 88 | 329 | 1.0 | 10.0 | 0.00 | 0.00 | 0.00 | 56 | 1008.4 |
| 20260509191140 | 89 | 309 | 6.0 | 9.0 | 0.00 | 0.00 | 0.00 | 56 | 1008.4 |
| 20260509190642 | 89 | 244 | 1.0 | 7.0 | 0.00 | 0.00 | 0.00 | 59 | 1008.3 |
| 20260509190141 | 89 | 257 | 5.0 | 7.0 | 0.00 | 0.00 | 0.00 | 57 | 1008.4 |
| 20260509185644 | 88 | 73 | 2.0 | 6.0 | 0.00 | 0.00 | 0.00 | 60 | 1008.4 |
| 20260509185140 | 87 | 331 | 2.0 | 7.0 | 0.00 | 0.00 | 0.00 | 60 | 1008.6 |
| 20260509183641 | 88 | 313 | 1.0 | 3.0 | 0.00 | 0.00 | 0.00 | 60 | 1008.7 |
| 20260509182643 | 87 | 327 | 1.0 | 3.0 | 0.00 | 0.00 | 0.00 | 63 | 1008.7 |
| 20260509182141 | 87 | 333 | 1.0 | 4.0 | 0.00 | 0.00 | 0.00 | 63 | 1008.7 |
| 20260509181139 | 86 | 312 | 3.0 | 6.0 | 0.00 | 0.00 | 0.00 | 63 | 1009.0 |
| 20260509180639 | 86 | 320 | 3.0 | 7.0 | 0.00 | 0.00 | 0.00 | 63 | 1009.2 |
| 20260509180139 | 86 | 290 | 3.0 | 7.0 | 0.00 | 0.00 | 0.00 | 62 | 1009.1 |
| 20260509175643 | 85 | 329 | 1.0 | 7.0 | 0.00 | 0.00 | 0.00 | 62 | 1009.2 |
| 20260509175140 | 86 | 282 | 3.0 | 7.0 | 0.00 | 0.00 | 0.00 | 62 | 1009.3 |
| 20260509174641 | 87 | 300 | 2.0 | 5.0 | 0.00 | 0.00 | 0.00 | 62 | 1009.3 |
| 20260509174140 | 87 | 258 | 0.0 | 9.0 | 0.00 | 0.00 | 0.00 | 62 | 1009.4 |
| 20260509173640 | 86 | 47 | 0.0 | 11.0 | 0.00 | 0.00 | 0.00 | 62 | 1009.5 |
| 20260509173139 | 87 | 314 | 5.0 | 11.0 | 0.00 | 0.00 | 0.00 | 61 | 1009.5 |
| 20260509172641 | 87 | 244 | 1.0 | 4.0 | 0.00 | 0.00 | 0.00 | 63 | 1009.6 |
| 20260509171640 | 85 | 295 | 1.0 | 4.0 | 0.00 | 0.00 | 0.00 | 62 | 1009.6 |
| 20260509171139 | 85 | 123 | 0.0 | 4.0 | 0.00 | 0.00 | 0.00 | 63 | 1009.6 |
| 20260509170639 | 85 | 63 | 1.0 | 3.0 | 0.00 | 0.00 | 0.00 | 63 | 1009.6 |
| 20260509170139 | 85 | 41 | 0.0 | 3.0 | 0.00 | 0.00 | 0.00 | 63 | 1009.7 |
| 20260509165640 | 85 | 85 | 0.0 | 3.0 | 0.00 | 0.00 | 0.00 | 63 | 1009.6 |
| 20260509165137 | 84 | 326 | 0.0 | 3.0 | 0.00 | 0.00 | 0.00 | 64 | 1009.6 |
| 20260509164639 | 84 | 35 | 0.0 | 2.0 | 0.00 | 0.00 | 0.00 | 65 | 1009.9 |
| 20260509164139 | 83 | 178 | 0.0 | 4.0 | 0.00 | 0.00 | 0.00 | 66 | 1009.7 |
| 20260509163640 | 83 | 319 | 1.0 | 4.0 | 0.00 | 0.00 | 0.00 | 65 | 1009.8 |
| 20260509161639 | 82 | 104 | 0.0 | 2.0 | 0.00 | 0.00 | 0.00 | 66 | 1009.0 |
| 20260509161137 | 82 | 106 | 1.0 | 2.0 | 0.00 | 0.00 | 0.00 | 65 | 1008.6 |
| 20260509160637 | 81 | 131 | 1.0 | 5.0 | 0.00 | 0.00 | 0.00 | 61 | 1008.4 |
| 20260509155638 | 80 | 310 | 2.0 | 6.0 | 0.00 | 0.00 | 0.00 | 56 | 1009.1 |
| 20260509155138 | 80 | 279 | 4.0 | 7.0 | 0.00 | 0.00 | 0.00 | 60 | 1009.0 |
| 20260509154137 | 79 | 299 | 4.0 | 7.0 | 0.00 | 0.00 | 0.00 | 54 | 1009.2 |
| 20260509153639 | 79 | 212 | 4.0 | 7.0 | 0.00 | 0.00 | 0.00 | 52 | 1009.3 |
| 20260509153137 | 79 | 292 | 4.0 | 6.0 | 0.00 | 0.00 | 0.00 | 40 | 1009.5 |
| 20260509151637 | 78 | 252 | 4.0 | 6.0 | 0.00 | 0.00 | 0.00 | 1 | 1009.3 |
| 20260509150636 | 78 | 302 | 5.0 | 11.0 | 0.00 | 0.00 | 0.00 | 1 | 1009.1 |
| 20260509145636 | 78 | 206 | 5.0 | 9.0 | 0.00 | 0.00 | 0.00 | 1 | 1008.8 |
| 20260509144636 | 77 | 226 | 3.0 | 7.0 | 0.00 | 0.00 | 0.00 | 1 | 1009.1 |
| 20260509144135 | 77 | 224 | 4.0 | 7.0 | 0.00 | 0.00 | 0.00 | 1 | 1009.1 |
| 20260509143635 | 77 | 223 | 2.0 | 4.0 | 0.00 | 0.00 | 0.00 | 1 | 1009.3 |
| 20260509143135 | 77 | 204 | 2.0 | 4.0 | 0.00 | 0.00 | 0.00 | 1 | 1009.6 |
| 20260509142135 | 77 | 244 | 2.0 | 3.0 | 0.00 | 0.00 | 0.00 | 1 | 1010.0 |
| 20260509141135 | 77 | 172 | 0.0 | 2.0 | 0.00 | 0.00 | 0.00 | 1 | 1009.9 |
| 20260509140635 | 77 | 172 | 0.0 | 0.0 | 0.00 | 0.00 | 0.00 | 1 | 1009.8 |
| 20260509140134 | 76 | 172 | 0.0 | 1.0 | 0.00 | 0.00 | 0.00 | 1 | 1009.8 |
| 20260509135636 | 76 | 172 | 0.0 | 1.0 | 0.00 | 0.00 | 0.00 | 1 | 1009.7 |
| 20260509135135 | 76 | 172 | 0.0 | 0.0 | 0.00 | 0.00 | 0.00 | 1 | 1009.7 |
| 20260509134636 | 76 | 172 | 0.0 | 0.0 | 0.00 | 0.00 | 0.00 | 1 | 1009.9 |
| 20260509134133 | 76 | 172 | 0.0 | 2.0 | 0.00 | 0.00 | 0.00 | 1 | 1009.8 |
| 20260509133134 | 76 | 172 | 0.0 | 0.0 | 0.00 | 0.00 | 0.00 | 1 | 1009.4 |
| 20260509132134 | 76 | 254 | 0.0 | 3.0 | 0.00 | 0.00 | 0.00 | 1 | 1009.4 |
| 20260509131635 | 76 | 240 | 1.0 | 3.0 | 0.00 | 0.00 | 0.00 | 1 | 1009.3 |
| 20260509130632 | 76 | 329 | 0.0 | 1.0 | 0.00 | 0.00 | 0.00 | 1 | 1009.2 |
| 20260509125632 | 76 | 330 | 0.0 | 2.0 | 0.00 | 0.00 | 0.00 | 1 | 1009.3 |
| 20260509124629 | 0 | 0.0 | 0.0 | 0.00 | 0.00 | 0.00 | 1009.4 | ||
| 20260509124121 | 0 | 0.0 | 0.0 | 0.00 | 0.00 | 0.00 | 1009.4 | ||
| 20260509123616 | 0 | 0.0 | 0.0 | 0.00 | 0.00 | 0.00 | 1009.6 | ||
| 20260509122605 | 0 | 0.0 | 0.0 | 0.00 | 0.00 | 0.00 | 1009.7 | ||
| 20260509122057 | 0 | 0.0 | 0.0 | 0.00 | 0.00 | 0.00 | 1009.9 | ||
| 20260509121551 | 0 | 0.0 | 0.0 | 0.00 | 0.00 | 0.00 | 1009.7 | ||
| 20260509120539 | 0 | 0.0 | 0.0 | 0.00 | 0.00 | 0.00 | 1008.3 | ||
| 20260509120031 | 0 | 0.0 | 0.0 | 0.00 | 0.00 | 0.00 | 1007.4 | ||
| 20260509115528 | 0 | 0.0 | 0.0 | 0.00 | 0.00 | 0.00 | 1006.4 | ||
| 20260509115019 | 0 | 0.0 | 0.0 | 0.00 | 0.00 | 0.00 | 1006.4 | ||
| 20260509114514 | 0 | 0.0 | 0.0 | 0.00 | 0.00 | 0.00 | 1006.2 | ||
| 20260509114006 | 0 | 0.0 | 0.0 | 0.00 | 0.00 | 0.00 | 1006.2 | ||
| 20260509113501 | 0 | 0.0 | 0.0 | 0.00 | 0.00 | 0.00 | 1006.7 | ||
| 20260509111942 | 0 | 0.0 | 0.0 | 0.00 | 0.00 | 0.00 | 1009.3 | ||
| 20260509111437 | 0 | 0.0 | 0.0 | 0.00 | 0.00 | 0.00 | 1009.9 | ||
| 20260509110929 | 0 | 0.0 | 0.0 | 0.00 | 0.00 | 0.00 | 1009.7 | ||
| 20260509105918 | 0 | 0.0 | 0.0 | 0.00 | 0.00 | 0.00 | 1009.4 | ||
| 20260509105414 | 0 | 0.0 | 0.0 | 0.00 | 0.00 | 0.00 | 1009.5 | ||
| 20260509104905 | 0 | 0.0 | 0.0 | 0.00 | 0.00 | 0.00 | 1009.1 | ||
| 20260509104400 | 0 | 0.0 | 0.0 | 0.00 | 0.00 | 0.00 | 1008.7 | ||
| 20260509103853 | 0 | 0.0 | 0.0 | 0.00 | 0.00 | 0.00 | 1009.0 | ||
| 20260509103347 | 0 | 0.0 | 0.0 | 0.00 | 0.00 | 0.00 | 1009.0 | ||
| 20260509102840 | 0 | 0.0 | 0.0 | 0.00 | 0.00 | 0.00 | 1008.7 | ||
| 20260509102336 | 0 | 0.0 | 0.0 | 0.00 | 0.00 | 0.00 | 1008.6 | ||
| 20260509101828 | 0 | 0.0 | 0.0 | 0.00 | 0.00 | 0.00 | 1008.6 | ||
| 20260509101322 | 0 | 0.0 | 0.0 | 0.00 | 0.00 | 0.00 | 1008.7 | ||
| 20260509100816 | 0 | 0.0 | 0.0 | 0.00 | 0.00 | 0.00 | 1008.6 | ||
| 20260509100310 | 0 | 0.0 | 0.0 | 0.00 | 0.00 | 0.00 | 1008.7 | ||
| 20260509095300 | 0 | 0.0 | 0.0 | 0.00 | 0.00 | 0.00 | 1008.4 | ||
| 20260509094751 | 0 | 0.0 | 0.0 | 0.00 | 0.00 | 0.00 | 1008.1 | ||
| 20260509094245 | 0 | 0.0 | 0.0 | 0.00 | 0.00 | 0.00 | 1008.1 | ||
| 20260509093738 | 0 | 0.0 | 0.0 | 0.00 | 0.00 | 0.00 | 1008.1 | ||
| 20260509093234 | 0 | 0.0 | 0.0 | 0.00 | 0.00 | 0.00 | 1008.3 | ||
| 20260509092223 | 72 | 173 | 0.0 | 0.0 | 0.00 | 0.00 | 0.00 | 1 | 1008.2 |
| 20260509091718 | 73 | 175 | 0.0 | 0.0 | 0.00 | 0.00 | 0.00 | 1 | 1008.3 |
| 20260509091220 | 73 | 175 | 0.0 | 0.0 | 0.00 | 0.00 | 0.00 | 1 | 1008.1 |
| 20260509090718 | 73 | 175 | 0.0 | 0.0 | 0.00 | 0.00 | 0.00 | 1 | 1008.1 |
| 20260509085719 | 73 | 175 | 0.0 | 0.0 | 0.00 | 0.00 | 0.00 | 1 | 1008.1 |
| 20260509085221 | 73 | 175 | 0.0 | 0.0 | 0.00 | 0.00 | 0.00 | 1 | 1008.1 |
| 20260509084719 | 73 | 175 | 0.0 | 0.0 | 0.00 | 0.00 | 0.00 | 1 | 1008.2 |
| 20260509083719 | 73 | 175 | 0.0 | 0.0 | 0.00 | 0.00 | 0.00 | 1 | 1008.3 |
| 20260509082718 | 73 | 175 | 0.0 | 0.0 | 0.00 | 0.00 | 0.00 | 1 | 1008.1 |
| 20260509082220 | 73 | 175 | 0.0 | 0.0 | 0.00 | 0.00 | 0.00 | 1 | 1008.1 |
| 20260509081219 | 73 | 175 | 0.0 | 4.0 | 0.00 | 0.00 | 0.00 | 1 | 1008.1 |
| 20260509080219 | 73 | 110 | 1.0 | 4.0 | 0.00 | 0.00 | 0.00 | 1 | 1008.1 |
| 20260509075716 | 73 | 114 | 2.0 | 5.0 | 0.00 | 0.00 | 0.00 | 1 | 1008.2 |
| 20260509074717 | 73 | 113 | 3.0 | 5.0 | 0.00 | 0.00 | 0.00 | 1 | 1008.2 |
| 20260509074218 | 73 | 106 | 2.0 | 4.0 | 0.00 | 0.00 | 0.00 | 1 | 1008.4 |
| 20260509073717 | 73 | 123 | 2.0 | 4.0 | 0.00 | 0.00 | 0.00 | 1 | 1008.5 |
| 20260509072716 | 72 | 127 | 1.0 | 5.0 | 0.00 | 0.00 | 0.00 | 1 | 1008.5 |
| 20260509072217 | 72 | 138 | 3.0 | 5.0 | 0.00 | 0.00 | 0.00 | 1 | 1008.6 |
| 20260509071717 | 72 | 128 | 2.0 | 4.0 | 0.00 | 0.00 | 0.00 | 1 | 1008.6 |
| 20260509071218 | 72 | 125 | 3.0 | 4.0 | 0.00 | 0.00 | 0.00 | 1 | 1008.5 |
| 20260509070715 | 72 | 123 | 2.0 | 3.0 | 0.00 | 0.00 | 0.00 | 1 | 1008.7 |
| 20260509070217 | 72 | 114 | 0.0 | 2.0 | 0.00 | 0.00 | 0.00 | 1 | 1008.8 |
| 20260509065717 | 72 | 117 | 0.0 | 1.0 | 0.00 | 0.00 | 0.00 | 1 | 1008.9 |
| 20260509065218 | 72 | 120 | 0.0 | 0.0 | 0.00 | 0.00 | 0.00 | 1 | 1009.0 |
| 20260509064716 | 72 | 120 | 0.0 | 0.0 | 0.00 | 0.00 | 0.00 | 1 | 1009.0 |
| 20260509064218 | 72 | 120 | 0.0 | 0.0 | 0.00 | 0.00 | 0.00 | 1 | 1009.2 |
| 20260509063716 | 72 | 120 | 0.0 | 1.0 | 0.00 | 0.00 | 0.00 | 1 | 1009.3 |
| 20260509063217 | 72 | 120 | 0.0 | 1.0 | 0.00 | 0.00 | 0.00 | 1 | 1009.4 |
| 20260509062714 | 72 | 120 | 0.0 | 0.0 | 0.00 | 0.00 | 0.00 | 1 | 1009.4 |
| 20260509062219 | 72 | 120 | 0.0 | 0.0 | 0.00 | 0.00 | 0.00 | 1 | 1009.4 |
| 20260509061716 | 72 | 120 | 0.0 | 0.0 | 0.00 | 0.00 | 0.00 | 1 | 1009.4 |
| 20260509061216 | 72 | 120 | 0.0 | 1.0 | 0.00 | 0.00 | 0.00 | 1 | 1009.4 |
| 20260509060715 | 72 | 120 | 0.0 | 1.0 | 0.00 | 0.00 | 0.00 | 1 | 1009.3 |
| 20260509060217 | 72 | 120 | 0.0 | 1.0 | 0.00 | 0.00 | 0.00 | 1 | 1009.3 |
| 20260509055215 | 72 | 125 | 0.0 | 1.0 | 0.00 | 0.00 | 0.00 | 1 | 1009.3 |
| 20260509054215 | 73 | 138 | 0.0 | 3.0 | 0.00 | 0.00 | 0.00 | 1 | 1009.1 |
| 20260509053715 | 73 | 140 | 0.0 | 3.0 | 0.00 | 0.00 | 0.00 | 1 | 1009.2 |
| 20260509053215 | 73 | 130 | 2.0 | 3.0 | 0.00 | 0.00 | 0.00 | 1 | 1009.2 |
| 20260509052713 | 73 | 110 | 0.0 | 2.0 | 0.00 | 0.00 | 0.00 | 1 | 1009.2 |
| 20260509052216 | 73 | 89 | 1.0 | 3.0 | 0.00 | 0.00 | 0.00 | 1 | 1009.2 |
| 20260509051713 | 73 | 87 | 2.0 | 3.0 | 0.00 | 0.00 | 0.00 | 1 | 1009.3 |
| 20260509051215 | 74 | 97 | 1.0 | 2.0 | 0.00 | 0.00 | 0.00 | 1 | 1009.3 |
| 20260509050714 | 74 | 121 | 0.0 | 2.0 | 0.00 | 0.00 | 0.00 | 1 | 1009.3 |
| 20260509050214 | 74 | 111 | 1.0 | 1.0 | 0.00 | 0.00 | 0.00 | 1 | 1009.6 |
| 20260509045714 | 74 | 111 | 0.0 | 1.0 | 0.00 | 0.00 | 0.00 | 1 | 1009.6 |
| 20260509045216 | 74 | 111 | 0.0 | 1.0 | 0.00 | 0.00 | 0.00 | 1 | 1009.6 |
| 20260509044712 | 74 | 103 | 0.0 | 1.0 | 0.00 | 0.00 | 0.00 | 1 | 1009.6 |
| 20260509044215 | 74 | 94 | 0.0 | 1.0 | 0.00 | 0.00 | 0.00 | 1 | 1009.6 |
| 20260509043713 | 74 | 94 | 0.0 | 1.0 | 0.00 | 0.00 | 0.00 | 1 | 1009.6 |
| 20260509043215 | 74 | 94 | 0.0 | 3.0 | 0.00 | 0.00 | 0.00 | 1 | 1009.5 |
| 20260509042713 | 74 | 94 | 0.0 | 3.0 | 0.00 | 0.00 | 0.00 | 1 | 1009.6 |
| 20260509041712 | 74 | 94 | 1.0 | 3.0 | 0.00 | 0.00 | 0.00 | 1 | 1009.6 |
| 20260509041213 | 74 | 99 | 2.0 | 4.0 | 0.00 | 0.00 | 0.00 | 1 | 1009.3 |
| 20260509040712 | 74 | 90 | 2.0 | 4.0 | 0.00 | 0.00 | 0.00 | 1 | 1009.4 |
| 20260509040214 | 74 | 83 | 1.0 | 3.0 | 0.00 | 0.00 | 0.00 | 1 | 1009.3 |
| 20260509035713 | 74 | 82 | 0.0 | 3.0 | 0.00 | 0.00 | 0.00 | 1 | 1009.4 |
| 20260509035214 | 74 | 92 | 1.0 | 4.0 | 0.00 | 0.00 | 0.00 | 1 | 1009.4 |
| 20260509034711 | 74 | 102 | 2.0 | 4.0 | 0.00 | 0.00 | 0.00 | 1 | 1009.2 |
| 20260509034214 | 74 | 87 | 2.0 | 4.0 | 0.00 | 0.00 | 0.00 | 1 | 1009.1 |